Location: Newark
(27.5900°N, 83.4900°E)
Time: 23:06:56
(UTC+00:00)

Hubble Space Telescope - Pass Details

Date: 11 December 2019
Orbit: 536 x 540 km, 28.5° (Epoch: 28 January)

Event Time Altitude Azimuth Distance (km) Brightness Sun altitude
Exits shadow 23:10:33 - 190° (S) 1,908 3.6 -25.0°
Reaches altitude 10° 23:11:09 10° 183° (S) 1,780 3.5 -24.9°
Maximum altitude 23:13:14 14° 152° (SSE) 1,564 3.6 -24.4°
Drops below altitude 10° 23:15:20 10° 122° (ESE) 1,783 4.4 -24.0°
Sets 23:18:34 0° 95° (E) 2,676 5.7 -23.3°
